| time (UTC) | temp F | wind direction | speed MPH | gust MPH | rain 1hr in | rain 24hr in | rain mn in | humidity % | barometer mb |
| 20260507184629 | 46 | 263 | 3.0 | 10.0 | 0.00 | 0.28 | 0.02 | 48 | 1017.8 |
| 20260507183046 | 45 | 302 | 2.0 | 5.0 | 0.00 | 0.28 | 0.02 | 49 | 1018.2 |
| 20260507181529 | 45 | 277 | 3.0 | 8.0 | 0.00 | 0.28 | 0.02 | 49 | 1018.4 |
| 20260507180100 | 46 | 285 | 2.0 | 6.0 | 0.00 | 0.28 | 0.02 | 52 | 1018.5 |
| 20260507174608 | 46 | 304 | 1.0 | 4.0 | 0.00 | 0.28 | 0.02 | 53 | 1018.5 |
| 20260507173105 | 46 | 319 | 3.0 | 9.0 | 0.00 | 0.28 | 0.02 | 47 | 1019.0 |
| 20260507171613 | 45 | 312 | 2.0 | 5.0 | 0.00 | 0.28 | 0.02 | 56 | 1019.3 |
| 20260507170110 | 45 | 318 | 2.0 | 9.0 | 0.01 | 0.28 | 0.02 | 50 | 1019.7 |
| 20260507164619 | 43 | 312 | 1.0 | 9.0 | 0.01 | 0.28 | 0.02 | 53 | 1020.1 |
| 20260507163013 | 42 | 247 | 1.0 | 8.0 | 0.02 | 0.28 | 0.02 | 51 | 1020.5 |
| 20260507161535 | 43 | 273 | 1.0 | 5.0 | 0.02 | 0.28 | 0.02 | 48 | 1020.6 |
| 20260507160043 | 41 | 321 | 2.0 | 8.0 | 0.01 | 0.28 | 0.01 | 48 | 1021.0 |
| 20260507154545 | 41 | 22 | 3.0 | 6.0 | 0.01 | 0.28 | 0.01 | 47 | 1021.1 |
| 20260507153101 | 40 | 28 | 1.0 | 9.0 | 0.00 | 0.27 | 0.00 | 47 | 1021.2 |
| 20260507151553 | 39 | 284 | 1.0 | 4.0 | 0.00 | 0.27 | 0.00 | 47 | 1021.4 |
| 20260507150104 | 38 | 297 | 1.0 | 5.0 | 0.00 | 0.27 | 0.00 | 51 | 1021.5 |
| 20260507144611 | 36 | 323 | 2.0 | 5.0 | 0.00 | 0.27 | 0.00 | 51 | 1021.5 |
| 20260507143059 | 36 | 32 | 2.0 | 6.0 | 0.00 | 0.27 | 0.00 | 49 | 1021.6 |
| 20260507141611 | 35 | 333 | 1.0 | 4.0 | 0.00 | 0.27 | 0.00 | 53 | 1021.8 |
| 20260507140123 | 34 | 323 | 1.0 | 5.0 | 0.00 | 0.27 | 0.00 | 52 | 1022.1 |
| 20260507134607 | 33 | 105 | 1.0 | 3.0 | 0.00 | 0.27 | 0.00 | 58 | 1022.0 |
| 20260507133122 | 32 | 49 | 0.0 | 3.0 | 0.00 | 0.27 | 0.00 | 64 | 1022.0 |
| 20260507131624 | 31 | 17 | 1.0 | 4.0 | 0.00 | 0.27 | 0.00 | 60 | 1022.1 |
| 20260507130132 | 29 | 62 | 2.0 | 6.0 | 0.00 | 0.27 | 0.00 | 62 | 1022.1 |
| 20260507124636 | 26 | 87 | 3.0 | 7.0 | 0.00 | 0.27 | 0.00 | 68 | 1021.9 |
| 20260507123117 | 26 | 80 | 1.0 | 5.0 | 0.00 | 0.27 | 0.00 | 67 | 1021.9 |
| 20260507121509 | 26 | 84 | 1.0 | 4.0 | 0.00 | 0.27 | 0.00 | 68 | 1022.0 |
| 20260507120131 | 26 | 88 | 1.0 | 3.0 | 0.00 | 0.27 | 0.00 | 66 | 1021.9 |
| 20260507114510 | 26 | 92 | 3.0 | 7.0 | 0.00 | 0.27 | 0.00 | 65 | 1021.8 |
| 20260507113016 | 26 | 44 | 2.0 | 7.0 | 0.00 | 0.27 | 0.00 | 65 | 1021.9 |
| 20260507111617 | 25 | 94 | 2.0 | 8.0 | 0.00 | 0.27 | 0.00 | 67 | 1022.0 |
| 20260507110120 | 26 | 82 | 2.0 | 4.0 | 0.00 | 0.27 | 0.00 | 66 | 1022.1 |
| 20260507104524 | 26 | 117 | 4.0 | 8.0 | 0.00 | 0.27 | 0.00 | 63 | 1021.9 |
| 20260507103013 | 26 | 57 | 2.0 | 4.0 | 0.00 | 0.27 | 0.00 | 64 | 1021.9 |
| 20260507101513 | 26 | 95 | 2.0 | 7.0 | 0.00 | 0.27 | 0.00 | 63 | 1021.9 |
| 20260507100039 | 26 | 78 | 2.0 | 5.0 | 0.00 | 0.27 | 0.00 | 63 | 1021.9 |
| 20260507094633 | 25 | 96 | 2.0 | 6.0 | 0.00 | 0.27 | 0.00 | 66 | 1021.7 |
| 20260507093025 | 25 | 71 | 2.0 | 7.0 | 0.00 | 0.27 | 0.00 | 65 | 1021.9 |
| 20260507091508 | 24 | 100 | 4.0 | 8.0 | 0.00 | 0.27 | 0.00 | 69 | 1021.7 |
| 20260507090116 | 24 | 57 | 2.0 | 4.0 | 0.00 | 0.27 | 0.00 | 71 | 1022.1 |
| 20260507084614 | 24 | 65 | 0.0 | 3.0 | 0.00 | 0.27 | 0.00 | 71 | 1022.1 |
| 20260507083112 | 23 | 73 | 1.0 | 2.0 | 0.00 | 0.27 | 0.00 | 73 | 1022.0 |
| 20260507081612 | 24 | 67 | 0.0 | 0.0 | 0.00 | 0.27 | 0.00 | 72 | 1021.9 |
| 20260507080132 | 24 | 67 | 0.0 | 0.0 | 0.00 | 0.27 | 0.00 | 72 | 1022.0 |
| 20260507074518 | 24 | 67 | 0.0 | 4.0 | 0.00 | 0.27 | 0.00 | 74 | 1021.8 |
| 20260507073130 | 24 | 60 | 2.0 | 3.0 | 0.00 | 0.27 | 0.00 | 74 | 1021.8 |
| 20260507071627 | 25 | 43 | 0.0 | 0.0 | 0.00 | 0.27 | 0.00 | 73 | 1022.0 |
| 20260507070122 | 25 | 43 | 0.0 | 0.0 | 0.00 | 0.27 | 0.00 | 73 | 1021.7 |
| 20260507064619 | 26 | 42 | 1.0 | 4.0 | 0.00 | 0.27 | 0.00 | 70 | 1021.5 |
| 20260507063118 | 26 | 28 | 0.0 | 0.0 | 0.00 | 0.27 | 0.00 | 70 | 1021.5 |
| 20260507061618 | 25 | 28 | 0.0 | 0.0 | 0.00 | 0.27 | 0.00 | 77 | 1021.2 |
| 20260507060105 | 25 | 28 | 0.0 | 0.0 | 0.00 | 0.27 | 0.00 | 78 | 1020.9 |
| 20260507054511 | 25 | 74 | 0.0 | 0.0 | 0.00 | 0.27 | 0.27 | 79 | 1020.7 |
| 20260507053025 | 25 | 55 | 0.0 | 0.0 | 0.00 | 0.27 | 0.27 | 81 | 1020.5 |
| 20260507051549 | 25 | 55 | 0.0 | 0.0 | 0.00 | 0.27 | 0.27 | 82 | 1020.0 |
| 20260507050052 | 25 | 56 | 0.0 | 0.0 | 0.00 | 0.27 | 0.27 | 83 | 1019.8 |
| 20260507044600 | 26 | 55 | 0.0 | 0.0 | 0.00 | 0.27 | 0.27 | 83 | 1019.9 |
| 20260507043110 | 26 | 56 | 0.0 | 0.0 | 0.00 | 0.27 | 0.27 | 83 | 1019.6 |
| 20260507041602 | 26 | 57 | 0.0 | 0.0 | 0.00 | 0.27 | 0.27 | 85 | 1019.6 |
| 20260507040110 | 26 | 57 | 0.0 | 0.0 | 0.00 | 0.27 | 0.27 | 85 | 1019.6 |
| 20260507034609 | 26 | 57 | 0.0 | 0.0 | 0.00 | 0.27 | 0.27 | 87 | 1019.3 |
| 20260507033109 | 25 | 57 | 0.0 | 0.0 | 0.00 | 0.27 | 0.27 | 89 | 1019.2 |
| 20260507031545 | 25 | 88 | 0.0 | 0.0 | 0.00 | 0.27 | 0.27 | 90 | 1019.0 |
| 20260507030057 | 25 | 88 | 0.0 | 2.0 | 0.00 | 0.27 | 0.27 | 91 | 1018.7 |
| 20260507024602 | 25 | 101 | 0.0 | 4.0 | 0.00 | 0.27 | 0.27 | 91 | 1018.6 |
| 20260507023116 | 24 | 156 | 0.0 | 0.0 | 0.00 | 0.27 | 0.27 | 90 | 1018.3 |
| 20260507021620 | 25 | 156 | 0.0 | 0.0 | 0.00 | 0.27 | 0.27 | 89 | 1018.2 |
| 20260507020131 | 25 | 156 | 0.0 | 0.0 | 0.00 | 0.27 | 0.27 | 88 | 1017.9 |
| 20260507014519 | 26 | 156 | 0.0 | 0.0 | 0.01 | 0.27 | 0.27 | 87 | 1017.6 |
| 20260507013050 | 27 | 156 | 0.0 | 3.0 | 0.01 | 0.27 | 0.27 | 86 | 1017.5 |
| 20260507011552 | 28 | 167 | 1.0 | 4.0 | 0.02 | 0.27 | 0.27 | 85 | 1017.3 |
| 20260507010109 | 29 | 153 | 1.0 | 3.0 | 0.02 | 0.27 | 0.27 | 84 | 1017.0 |
| 20260507004521 | 30 | 169 | 1.0 | 5.0 | 0.02 | 0.26 | 0.26 | 84 | 1016.7 |
| 20260507003132 | 30 | 227 | 2.0 | 4.0 | 0.03 | 0.26 | 0.26 | 82 | 1016.6 |
| 20260507001612 | 31 | 154 | 2.0 | 5.0 | 0.03 | 0.25 | 0.25 | 80 | 1016.6 |
| 20260507000110 | 31 | 174 | 2.0 | 5.0 | 0.04 | 0.25 | 0.25 | 79 | 1016.4 |
| 20260506234611 | 32 | 198 | 0.0 | 6.0 | 0.04 | 0.24 | 0.24 | 79 | 1016.2 |
| 20260506233119 | 32 | 270 | 0.0 | 7.0 | 0.04 | 0.23 | 0.23 | 82 | 1016.2 |
| 20260506231625 | 31 | 258 | 3.0 | 6.0 | 0.03 | 0.22 | 0.22 | 82 | 1016.2 |
| 20260506230106 | 31 | 189 | 3.0 | 8.0 | 0.03 | 0.21 | 0.21 | 82 | 1015.9 |
| 20260506224546 | 30 | 219 | 0.0 | 6.0 | 0.03 | 0.20 | 0.20 | 85 | 1015.6 |
| 20260506223056 | 30 | 169 | 1.0 | 4.0 | 0.02 | 0.19 | 0.19 | 83 | 1015.6 |
| 20260506221604 | 29 | 219 | 0.0 | 4.0 | 0.04 | 0.19 | 0.19 | 85 | 1015.7 |
| 20260506220110 | 29 | 209 | 1.0 | 3.0 | 0.04 | 0.18 | 0.18 | 85 | 1015.7 |
| 20260506214616 | 29 | 233 | 0.0 | 5.0 | 0.06 | 0.17 | 0.17 | 85 | 1015.7 |
| 20260506213012 | 29 | 239 | 0.0 | 7.0 | 0.06 | 0.16 | 0.16 | 85 | 1015.6 |
| 20260506211526 | 29 | 250 | 1.0 | 5.0 | 0.07 | 0.15 | 0.15 | 83 | 1015.4 |
| 20260506210033 | 30 | 173 | 2.0 | 8.0 | 0.07 | 0.14 | 0.14 | 82 | 1015.3 |
| 20260506204544 | 30 | 165 | 3.0 | 8.0 | 0.06 | 0.11 | 0.11 | 83 | 1015.4 |
| 20260506203053 | 29 | 227 | 1.0 | 6.0 | 0.08 | 0.10 | 0.10 | 86 | 1015.1 |
| 20260506201535 | 28 | 263 | 2.0 | 5.0 | 0.07 | 0.08 | 0.08 | 85 | 1015.2 |
| 20260506200053 | 28 | 264 | 2.0 | 6.0 | 0.06 | 0.07 | 0.07 | 85 | 1015.0 |
| 20260506194550 | 29 | 268 | 2.0 | 6.0 | 0.03 | 0.04 | 0.04 | 86 | 1014.9 |
| 20260506193044 | 28 | 240 | 2.0 | 7.0 | 0.01 | 0.02 | 0.02 | 86 | 1014.7 |
| 20260506191518 | 28 | 250 | 1.0 | 6.0 | 0.00 | 0.01 | 0.01 | 86 | 1014.7 |
| 20260506190022 | 28 | 155 | 2.0 | 6.0 | 0.01 | 0.01 | 0.01 | 86 | 1014.4 |